Theta_e
302 300 300 300 300 299 295 291 284 295 297 285 286 281 284 288 285 287 285 284 283 281 280 279 278 279 282 287 286 280 285 281 276 279 286 289 290 287 286 278 280 284 282 281
300 300 300 300 299 299 293 288 286 294 295 277 279 285 285 286 285 285 284 283 284 283 280 277 281 282 288 289 285 282 286 278 273 275 285 289 287 288 289 289 286 283 280 280
300 300 300 298 299 299 293 289 279 285 288 285 283 282 282 282 288 286 286 284 284 283 280 283 279 280 285 288 286 291 289 281 277 274 279 284 282 285 287 288 282 281 279 281
300 299 299 298 298 299 293 285 282 286 279 281 282 282 283 281 281 286 285 283 283 281 278 279 278 282 281 285 289 289 286 281 282 281 282 283 282 285 286 285 285 281 280 279
299 299 298 298 298 298 290 283 283 285 283 283 280 282 281 281 282 282 281 281 283 282 279 280 278 282 281 281 287 287 286 280 283 280 284 284 283 285 283 283 284 283 281 279
300 299 298 298 299 298 289 290 289 286 285 282 280 280 283 282 282 285 286 284 283 283 285 287 287 287 287 286 283 282 282 282 282 280 285 285 278 281 280 280 281 281 277 281
299 298 299 299 300 298 292 290 288 283 279 281 282 286 286 284 283 275 286 286 285 288 293 292 291 288 287 287 286 287 283 283 285 281 283 272 280 285 283 280 280 281 280 282
298 299 299 299 300 300 292 291 288 283 279 284 285 285 285 285 284 280 281 287 289 291 289 284 281 283 284 286 287 289 289 286 282 280 278 280 281 281 279 281 276 280 279 280
299 299 299 299 299 300 294 292 292 287 281 281 287 283 284 279 278 280 283 289 292 289 286 283 277 278 282 281 284 289 288 289 284 282 276 273 277 280 284 285 271 281 280 277
300 299 299 299 299 300 294 292 293 287 279 284 286 281 281 285 281 279 282 284 286 287 279 276 277 280 285 278 279 279 280 281 277 279 276 277 278 281 286 272 273 280 279 277
300 299 299 300 300 300 294 291 293 288 278 283 288 290 284 283 282 276 282 282 283 281 277 278 278 280 283 281 282 281 278 277 275 277 274 272 280 280 276 279 281 280 278 277
300 299 300 300 299 300 297 289 294 292 284 283 289 289 290 289 288 284 283 286 283 281 279 280 281 280 281 280 276 285 276 280 276 277 274 280 280 279 281 282 280 280 278 277
300 299 299 299 299 299 297 292 291 287 282 282 285 287 292 295 292 291 284 286 287 286 288 283 283 283 283 279 276 278 280 284 277 277 278 279 280 281 281 281 280 280 279 278
300 299 299 299 299 299 297 288 290 289 285 277 283 294 290 294 293 291 290 289 289 288 286 283 283 282 286 281 279 275 279 280 279 276 278 279 279 280 280 280 279 279 279 278
299 299 298 298 298 299 294 291 291 294 287 278 281 288 292 293 292 291 290 289 286 283 281 280 283 286 285 283 280 276 281 277 275 274 278 277 278 280 280 279 279 279 278 277
299 298 298 298 299 298 290 281 291 294 295 282 274 286 288 291 292 291 290 288 286 284 282 281 284 290 283 279 275 280 282 280 283 276 279 278 278 280 280 278 278 279 278 278
298 298 298 299 299 294 290 287 294 298 295 284 280 279 289 294 291 288 287 288 285 285 282 282 286 284 282 272 267 280 283 280 280 280 280 277 277 277 280 278 279 279 278 277
298 299 299 299 299 295 289 293 298 298 290 287 275 277 282 291 283 283 287 284 284 283 282 283 284 282 276 269 277 279 280 281 282 282 282 279 280 280 279 279 278 276 275 275
298 299 298 292 289 285 288 297 299 296 292 282 278 273 275 288 284 285 284 284 275 284 279 282 285 282 273 272 276 276 280 280 279 281 281 281 280 279 278 277 276 274 273 273
298 294 287 283 289 297 298 291 285 287 288 288 278 280 277 288 279 279 280 281 278 278 281 284 279 276 280 282 283 283 283 284 285 280 278 279 277 277 276 275 274 273 272 271
290 287 286 293 298 293 288 282 282 279 280 282 281 284 276 286 278 278 282 276 278 275 280 282 280 275 278 282 282 283 284 282 282 282 280 279 277 275 274 273 273 272 270 268
291 292 294 292 288 284 282 279 278 279 277 280 283 279 283 283 287 279 281 278 277 274 285 282 277 276 280 281 280 280 280 280 279 279 278 277 276 275 273 272 270 268 267 263
294 290 285 285 283 278 276 272 275 271 277 281 278 276 284 281 284 277 278 278 272 284 279 278 276 277 279 278 278 277 277 277 276 275 275 275 273 272 269 266 262 263 262 259
285 283 278 278 276 278 274 273 273 278 277 280 278 277 279 278 278 277 278 278 282 277 272 274 275 277 277 278 278 276 273 271 271 269 269 267 266 263 261 261 260 260 258 256
283 283 275 277 279 283 285 285 280 280 279 280 279 279 279 275 280 282 281 278 276 274 272 275 276 277 276 275 273 271 269 268 267 267 265 263 263 262 260 257 258 259 256 256
283 283 282 283 282 282 284 285 284 286 281 279 280 277 273 274 275 279 274 275 270 275 278 276 277 275 272 272 272 271 270 268 266 265 264 264 263 264 263 259 259 257 258 257
282 282 282 284 284 282 283 285 285 285 280 281 278 275 274 280 277 276 276 271 276 278 278 278 278 275 269 269 270 269 269 267 266 265 265 263 261 262 265 265 264 264 266 261
Wind_Speed
24 22 18 15 12 9 5 3 4 2 3 3 2 3 4 2 2 1 3 2 2 2 5 5 5 7 5 5 2 5 1 4 8 15 23 16 13 6 4 3 4 6 2 4
23 20 17 14 12 8 4 4 3 2 4 3 0 1 2 3 6 4 5 3 5 3 3 3 4 4 5 4 1 3 2 3 6 13 2 8 4 2 2 6 3 2 2 5
21 19 16 13 10 7 3 4 4 3 1 1 4 3 2 3 4 3 5 3 2 2 2 4 5 10 9 1 6 10 6 6 11 11 10 7 6 12 11 5 2 5 6 7
19 17 14 11 8 6 3 2 3 5 2 1 5 4 2 2 2 3 4 3 4 3 5 8 6 4 6 6 7 4 4 7 12 20 21 15 14 13 13 17 7 6 4 10
17 15 12 9 6 4 2 4 4 3 3 4 6 3 2 4 2 3 2 3 6 6 6 8 11 10 3 7 2 3 4 6 9 20 20 11 5 12 9 18 16 11 9 10
17 14 11 9 4 1 2 2 2 5 5 4 4 4 5 5 6 3 5 5 3 10 12 11 15 13 13 13 6 4 6 4 5 14 14 11 12 11 14 22 21 8 8 6
15 13 12 9 8 6 3 1 3 4 2 3 4 5 5 3 5 6 3 3 4 7 2 11 12 12 15 13 16 11 8 8 2 3 2 7 7 9 18 25 18 13 11 9
15 13 11 10 9 9 3 2 4 3 3 1 5 6 4 5 5 1 4 4 7 4 3 4 5 3 3 5 8 6 11 4 4 3 7 11 3 11 10 8 11 12 10 9
14 12 12 10 9 8 4 3 2 4 5 3 3 4 3 2 3 5 3 5 2 3 1 2 3 3 3 4 4 8 6 7 2 2 5 4 5 19 13 7 6 11 10 10
14 12 11 10 9 10 5 2 3 4 5 2 3 3 2 3 2 1 4 7 6 3 3 2 3 3 7 5 5 6 5 4 8 5 5 5 14 17 6 6 1 8 9 9
13 12 11 11 10 8 5 1 5 4 3 3 2 3 3 3 2 2 5 4 5 4 6 4 3 3 3 1 4 4 7 5 5 4 5 3 19 5 7 5 8 8 9 7
13 12 12 12 10 8 6 3 3 3 4 4 2 4 5 7 7 4 3 3 3 2 3 3 2 3 4 5 3 8 6 5 3 6 4 4 7 11 9 7 8 8 9 8
12 12 12 12 10 10 6 3 1 3 3 4 3 2 2 4 5 4 3 1 2 3 3 3 2 1 2 3 2 2 6 9 5 3 4 8 8 9 8 8 8 9 8 8
14 12 11 11 9 7 5 3 1 3 2 4 5 4 2 1 6 4 4 3 2 1 2 1 1 1 3 2 3 3 2 6 3 5 8 8 8 6 8 9 8 9 8 9
14 12 11 9 8 5 4 1 0 1 3 2 4 7 4 5 5 5 5 2 0 1 3 2 0 0 2 2 3 3 3 1 1 2 4 5 5 5 8 8 9 8 9 10
12 12 10 7 6 6 3 4 3 1 1 4 2 4 4 3 5 5 4 3 2 2 1 2 2 2 3 3 2 1 4 4 1 4 7 12 9 6 6 10 10 10 11 10
11 10 8 8 7 3 2 2 2 3 1 3 3 4 4 3 2 1 1 1 1 2 1 1 1 2 4 3 3 4 7 7 9 11 12 8 4 7 10 10 12 14 13 11
10 11 10 7 9 5 3 3 3 3 2 1 1 3 4 4 1 1 1 1 3 2 2 3 2 2 3 4 5 5 5 6 6 5 3 9 11 10 11 10 11 12 10 9
13 12 11 5 4 2 2 5 5 3 1 1 2 3 2 3 1 1 3 2 2 2 0 2 3 3 3 5 6 4 4 2 7 9 12 11 10 12 10 10 11 11 8 8
11 4 3 2 2 3 3 5 3 3 1 1 2 1 2 2 1 2 2 2 2 0 4 1 4 2 3 5 5 4 4 7 8 10 11 12 11 10 9 10 8 8 7 7
2 2 2 1 3 2 1 2 1 1 2 2 3 4 2 3 2 3 2 2 1 1 3 1 2 3 3 5 5 0 4 5 7 9 9 9 13 12 11 10 9 8 7 5
4 2 3 3 2 1 2 2 3 3 4 2 3 4 5 3 1 3 3 1 2 2 1 1 1 1 8 7 7 7 10 12 11 12 13 11 11 10 10 9 8 6 6 4
2 2 3 2 1 2 5 5 3 1 2 3 1 1 2 3 3 2 3 1 3 1 0 2 1 7 7 9 10 10 10 13 14 13 12 12 11 8 9 9 4 6 5 2
1 2 4 4 4 4 5 4 5 5 3 4 3 1 3 1 4 1 1 4 1 2 1 4 4 9 10 9 9 11 7 8 10 8 8 9 9 7 5 6 5 6 5 3
1 2 4 6 4 1 1 1 1 3 3 4 3 3 3 2 3 1 0 2 3 5 4 2 6 10 10 9 8 10 8 7 7 6 7 8 7 7 5 3 5 4 4 3
1 2 2 1 2 0 1 2 0 2 2 2 3 2 3 2 4 3 5 3 5 3 1 3 8 10 7 9 8 8 8 8 7 6 6 6 7 7 6 3 3 4 4 5
3 1 0 1 1 2 1 1 3 1 4 1 1 3 7 1 1 2 2 4 2 2 3 5 8 12 9 7 8 8 8 8 7 6 5 5 3 5 4 4 4 5 6 5
Wind_Direction
140 144 151 146 143 149 106 134 96 230 107 86 151 159 156 146 125 236 259 245 303 32 342 302 290 259 235 335 324 300 267 259 282 271 267 260 227 247 228 166 221 215 152 63
140 145 148 148 147 175 148 114 111 341 89 145 344 251 131 94 43 38 46 360 37 329 276 317 320 304 269 247 237 242 210 276 308 311 117 48 256 193 285 281 250 67 265 103
141 145 142 139 142 140 106 99 95 328 72 205 117 117 50 80 67 86 33 311 314 349 303 259 285 280 285 321 230 267 163 224 218 245 279 317 315 325 300 240 116 95 28 55
144 140 138 135 130 122 91 71 204 173 170 338 131 113 94 82 21 46 28 316 47 348 274 303 235 258 310 283 266 180 225 251 229 240 253 269 295 319 61 66 51 81 49 58
139 137 132 126 113 111 102 122 128 40 109 129 93 84 172 185 193 152 253 226 290 271 237 232 271 270 249 250 285 232 209 261 283 265 224 231 306 63 49 63 57 84 85 61
139 131 124 109 82 85 94 310 14 104 160 113 100 200 190 210 134 247 206 255 277 275 265 253 255 257 254 248 259 263 270 277 328 72 133 141 57 37 78 79 53 35 47 18
131 122 116 111 70 76 132 237 106 89 133 126 189 173 182 53 207 181 232 231 224 245 306 285 266 244 243 244 254 233 270 300 268 88 337 59 125 50 70 77 58 45 42 94
125 120 120 101 78 47 91 23 86 99 89 11 57 70 77 78 343 201 220 247 233 299 314 290 315 349 290 225 214 273 219 295 316 80 64 125 116 12 336 12 56 45 43 36
131 124 114 105 84 52 70 30 75 87 117 1 331 86 61 96 329 340 265 300 304 66 352 328 309 355 7 7 347 36 358 244 238 65 60 71 25 324 317 253 64 35 39 25
129 125 115 107 90 64 90 38 36 81 100 276 50 94 128 67 5 250 311 329 336 30 17 14 12 15 331 10 15 341 344 1 35 18 94 95 352 325 310 65 328 54 60 48
134 123 113 104 88 70 74 1 18 98 107 290 17 30 76 28 77 117 290 22 357 2 37 17 351 326 13 81 33 5 28 350 26 358 63 44 359 12 54 89 91 87 83 73
133 123 111 102 84 78 67 69 351 48 99 219 320 258 225 190 192 144 352 155 308 233 40 8 348 324 357 5 13 6 43 14 55 28 80 72 29 63 49 70 84 87 98 91
129 123 118 105 89 74 77 100 49 52 64 337 29 328 189 161 210 175 114 271 295 340 208 198 266 347 336 22 8 33 353 21 92 134 74 70 79 79 62 59 73 84 84 92
130 128 120 108 97 85 72 85 287 82 120 95 289 339 8 219 145 168 164 193 341 266 75 157 85 332 20 49 119 88 338 340 63 75 113 110 80 58 102 89 80 85 81 85
132 127 122 116 105 102 81 73 316 141 116 170 290 308 278 163 155 186 192 211 98 348 15 34 45 214 8 57 76 53 349 320 75 137 113 96 91 87 93 98 102 98 96 89
131 126 128 119 123 100 72 38 346 293 129 74 8 286 301 180 184 196 216 218 224 136 154 247 272 145 106 87 74 34 46 16 225 126 88 99 107 91 88 94 88 86 83 75
124 128 130 121 108 65 66 113 211 353 122 75 325 343 293 209 149 306 143 73 173 135 199 260 178 40 76 73 133 179 105 105 104 119 118 112 158 117 100 94 91 84 78 82
132 126 114 119 107 62 26 314 335 127 66 62 69 288 350 18 14 348 34 69 25 348 216 316 124 22 81 87 142 104 110 101 115 150 74 112 123 129 120 115 104 91 87 84
126 120 98 60 48 70 248 291 85 66 109 300 96 145 259 350 316 176 12 83 27 266 222 253 101 41 44 205 152 146 159 147 147 122 120 133 133 127 121 113 103 100 100 92
133 73 62 79 218 268 60 19 35 11 280 230 207 27 278 88 349 318 64 27 217 181 246 83 73 85 52 95 96 111 142 140 151 145 119 115 110 114 113 107 105 108 106 97
60 105 103 103 129 71 71 102 159 265 258 222 239 196 208 300 106 226 181 204 274 21 278 122 137 149 152 131 116 170 226 107 111 123 125 128 130 130 123 112 105 106 109 106
142 102 82 64 80 111 159 181 282 204 222 201 167 217 185 271 105 89 321 194 48 246 274 271 218 142 137 141 125 92 102 98 93 109 116 116 115 118 117 117 113 100 105 104
49 77 88 145 170 171 194 203 241 247 217 201 132 332 184 12 51 42 77 122 248 327 23 246 113 147 136 127 115 97 99 101 99 96 100 102 97 86 109 111 106 127 119 150
114 150 136 204 182 230 196 191 193 233 134 125 115 52 123 234 51 207 143 259 63 294 281 235 156 156 142 132 125 120 106 102 106 102 100 102 111 113 107 128 143 135 138 177
320 218 212 209 223 195 210 262 61 330 118 90 46 30 89 330 103 218 288 329 245 205 231 194 155 146 136 134 129 126 125 121 119 120 121 129 129 129 139 173 158 135 139 164
274 251 267 226 113 326 329 63 88 329 92 61 60 133 56 265 149 174 219 168 228 253 175 126 132 139 136 138 137 135 133 131 132 133 136 136 145 156 162 144 158 185 177 195
267 236 340 357 118 160 209 98 193 83 74 184 147 126 204 97 157 234 157 197 227 153 109 132 147 152 145 130 128 134 135 138 144 137 142 153 142 132 120 172 225 214 216 213